If you wish to contribute or participate in the discussions about articles you are invited to join SKYbrary as a registered user

 Actions

Châlons-Vatry Air Base

From SKYbrary Wiki

LFOK
Airport
ICAO: LFOK – IATA: XCR
Summary
Name Châlons-Vatry Air Base
Region Europe
Territory France FR.gif
Location , Champagne-Ardenne
Serving Chalons
Elevation 178.918 m
587 ft
587 ft178.918 m
Type medium airport
Coordinates 48° 46' 33.86" N, 4° 11' 4.17" E
Runways
Designator Length Width Surface ROPS
10/28 3860 m12,664.042 ft
45 m147.638 ft
CON yes/yes


METAR
Observation LFOK 220830Z AUTO 02005KT CAVOK 18/12 Q1026 NOSIG
Station Chalons-Vatry
Date/Time 22 August 2019 08:30:00
Wind direction 20°
Wind speed 05 kts
Lowest cloud amount clouds and visibility OK
Temperature 18°C
Dew point 12°C
Humidity 67%
QNH 1026 hPa
Weather condition n/a